Regional Weather Roundup
Issued by NWS Northern Indiana

Home | Current Version | Previous Version | Text Only | Print | Product List | Glossary Off
Versions: 1 2 3 4 5 6 7 8 9 10 11 12 13 14 15 16 17 18 19 20 21 22 23 24 25 26 27 28 29 30 31 32 33 34 35 36 37 38 39 40 41 42 43 44 45 46 47 48 49 50

331
ASUS43 KIWX 201300
RWRIWX

KIWX WEATHER ROUNDUP
NATIONAL WEATHER SERVICE NORTHERN INDIANA
800 AM EST MON FEB 20 2017

NOTE: "FAIR" INDICATES FEW OR NO CLOUDS BELOW 12,000 FEET WITH NO
SIGNIFICANT WEATHER AND/OR OBSTRUCTIONS TO VISIBILITY.

* THESE STATIONS ARE NOT UNDER NWS QUALITY CONTROL. THEY ALSO MAY NOT
  REPORT WEATHER SUCH AS PRECIPITATION OR FOG.

INZ001>027-201400-
NORTHERN INDIANA

CITY           SKY/WX    TMP DP  RH WIND       PRES   REMARKS
GARY*          MOCLDY    46  45  93 SE8       30.15R FOG
LAPORTE*       PTCLDY    38  35  87 CALM      30.18R
KNOX*          CLOUDY    41  30  65 SE7       30.18R
SOUTH BEND     PTCLDY    41  32  70 E5        30.19R
GOSHEN         CLOUDY    37  30  75 CALM      30.20R
MONTICELLO*    PTCLDY    42  41  95 SE3       30.17S FOG
WARSAW*        MOCLDY    34  32  93 CALM      30.21R
ANGOLA*        CLEAR     37  34  87 E6        30.21R
FORT WAYNE     CLOUDY    36  32  85 E3        30.23R
PERU/GRISSOM   FOG       41  41 100 SE5       30.19R VSB 1/4

$$
INZ028>050-201400-
CENTRAL INDIANA

CITY           SKY/WX    TMP DP  RH WIND       PRES   REMARKS
LAFAYETTE      CLOUDY    42  42 100 E5        30.17S FOG
KOKOMO*        FOG       41  41 100 SE3       30.21R VSB<1/4
MUNCIE*        FOG       41  40  96 S3        30.21R VSB 1/4
INDIANAPOLIS   FOG       42  42 100 SE7       30.20R VSB 1/8

$$
MIZ043>046-050>051-056>058-064>065-071>073-077>080-201400-
SOUTHWEST LOWER MICHIGAN

CITY           SKY/WX    TMP DP  RH WIND       PRES   REMARKS
BATTLE CREEK   PTCLDY    38  31  76 E3        30.21S
BENTON HARBOR  CLOUDY    44  28  53 SE8       30.18R
COLDWATER*     PTCLDY    37  34  86 SE6       30.22R
HILLSDALE*     CLOUDY    37  32  81 E6        30.22R
HOLLAND        CLOUDY    38  30  73 E6        30.19R
GRAND RAPIDS   CLOUDY    36  30  79 E8        30.21S
KALAMAZOO      PTCLDY    35  27  72 CALM      30.21R
STURGIS*       CLOUDY    40  32  72 SE5       30.21R
THREE RIVERS*  FAIR      32  30  91 CALM      30.22R

$$
OHZ001>008-015>018-024>025-201400-
NORTHWEST OHIO

CITY           SKY/WX    TMP DP  RH WIND       PRES   REMARKS
DEFIANCE       CLOUDY    34  32  92 NE6       30.23S WCI  29
FINDLAY        CLOUDY    36  31  82 CALM      30.23R
TOLEDO EXPRESS PTCLDY    35  34  96 E3        30.25R
TOLEDO METCALF PTCLDY    35  33  92 E3        30.26R
LIMA           FOG       36  36 100 S6        30.23R VSB 1/2

$$
AND FOR LAKE MICHIGAN COASTAL AND OPEN LAKE BUOY OBSERVATIONS

STATION/POSITION TEMP    WIND        PRES    VSBY  WAVE
                 AIR SEA DIR/SP/G                  HT/PER
                 (F)     (DEG/KT/KT) (MB)    (MI)  (FT/S)
CALUMET HARBOR    46     140/  4/  6 1020.1R
MICHIGAN CITY     46     110/  6/  7   N/A
BURNS HARBOR      48     150/  6/ 10 1021.7R

$$
&&




USA.gov is the U.S. government's official web portal to all federal, state and local government web resources and services.